COSMOS 1579 COOLANT, 26519

Orbit data source: Space-Track

COSMOS 1579 COOLANT, 26519 is space debris in LEO originally from a launch on Fri, 29 Jun 1984 UTC launched from the Tyuratam Missile And Space Complex (TTMTR). Debris objects in space refer to the collection of defunct objects orbiting the Earth. Examples of debris include non-operational satellites, rocket bodies, and fragments generated from explosions, collisions, or faulty payload assembly.

Loading next visibility...
Identifier
26519, 1984-069L
Orbit
LEO
Country
Flag of CISCIS
Related business
Manufacturer
Unknown
Mission
Spacecraft
Bus & Motor
Unknown
Mass
Unknown
Launch date (UTC)
1984-06-29 (41 years ago)
Launch vehicle
Unknown
Launch site
Tyuratam Missile And Space Complex (TTMTR)
Object type
Payload
Rocket body
Debris
Shape & HBR
Unknown shape, 0.1 m
Radar Cross Section
Small (<0.1 m²)

Expand to show TLE details & history
Last TLE update: 1 day ago

TLE from 1 day ago
0 COSMOS 1579 COOLANT
1 26519U 84069L   25348.59767772  .00000135  00000-0  17923-3 0  9996
2 26519  65.0510  47.6029 0028047  68.4602   5.7207 13.90774201621708
Epoch: 2025-12-14T14:20Z
TLE epoch observation values (Epoch: 2025-12-14T14:20:39.355Z)
Latitude
60.8672°
Longitude
165.06473°
Altitude
914.945 km
Speed
7.411 km/s
True Right ascension
06h 54m 56s
True Declination
60° 43' 26"
Sunlit
Object was in full shadow at epoch
Visualization orbit readout
Latitude
Unknown
Longitude
Unknown
Altitude
Unknown
Speed
Unknown
Apparent Right ascension
Unknown
Apparent Declination
Unknown
Sunlit
N/A
Visualization observer readout
Local Sidereal Time
23:23:23
Azimuth
Unknown
Elevation
Unknown
Doppler factor
Unknown
Orbital elements
Apogee altitude
945 km
Perigee altitude
904.036 km
Semi-major axis
7,302.655 km
Eccentricity
0.0028
Inclination
65.051°
RAAN
47.6029°
Arg. of periapsis
68.4602°
True anomaly
5.75285°
Mean anomaly
5.7207°
Eccentric anomaly
5.73676°
Mean motion
3.47794 °/min
Orbital period
103.51 mins
BSTAR
0.00017923
Loading maneuver chart data...
Computing Atmospheric mass density...

Documentation

Showing up to 5 results
|